This demonstration page uses our WeatherBlox Daily Observations layout. Learn more.

Left ArrowRight Arrow

34.74481, -87.66753

Hourly Observations for June 14, 2018

Temp ( °F °C ) Dew Point ( °F °C ) Humidity (%) Winds ( mph kmh ) Pressure ( in mb ) Visibility ( mi km ) Precip ( " mm )
12:53 am 00:53 Clear 72 22.2 70 21.1 94 94 Calm 30.04 1017 10 16 0.00 0.00
1:53 am 01:53 Mostly Clear 71 21.7 69 20.6 94 94 SSW 3 6 30.03 1017 10 16 0.00 0.00
2:53 am 02:53 Clear 70 21.1 69 20.6 97 97 SW 5 7 30.00 1016 10 16 0.00 0.00
3:53 am 03:53 Clear 70 21.1 68 20 93 93 W 3 6 30.01 1016 10 16 0.00 0.00
4:53 am 04:53 Clear 68 20 67 19.4 96 96 Calm 30.03 1017 10 16 0.00 0.00
5:19 am 05:19 Partly Cloudy with Mist and Fog 68 20 67 19.4 96 96 Calm 30.03 1017 3 4 0.00 0.00
5:35 am 05:35 Mostly Clear 68 20 67 19.4 96 96 Calm 30.03 1017 9 14 0.00 0.00
5:53 am 05:53 Sunny 68 20 66 18.9 93 93 Calm 30.04 1017 9 14 0.00 0.00
6:01 am 06:01 Mostly Sunny 68 20 67 19.4 96 96 Calm 30.03 1017 7 11 0.00 0.00
6:53 am 06:53 Partly Cloudy 70 21.1 69 20.6 97 97 SE 3 6 30.05 1018 10 16 0.00 0.00
6:57 am 06:57 Mostly Cloudy with Mist and Fog 70 21.1 69 20.6 97 97 ESE 3 6 30.03 1017 2 3 0.00 0.00
6:59 am 06:59 Mostly Cloudy with Mist and Fog 70 21.1 69 20.6 97 97 Calm 30.03 1017 1 1 0.00 0.00
7:21 am 07:21 Cloudy with Mist and Fog 71 21.7 70 21.1 96 96 Calm 30.06 1018 2 3 0.00 0.00
7:29 am 07:29 Mostly Cloudy 72 22.2 70 21.1 94 94 ENE 3 6 30.06 1018 8 13 0.00 0.00
7:53 am 07:53 Partly Cloudy 74 23.3 70 21.1 88 88 Calm 30.07 1018 10 16 0.00 0.00
8:17 am 08:17 Mostly Cloudy 75 23.9 70 21.1 84 84 Calm 30.06 1018 10 16 0.00 0.00
8:53 am 08:53 Cloudy 75 23.9 71 21.7 88 88 SSE 6 9 30.08 1019 10 16 0.00 0.00
9:53 am 09:53 Mostly Cloudy 79 26.1 72 22.2 79 79 Calm 30.06 1018 10 16 0.00 0.00
10:01 am 10:01 Partly Cloudy 79 26.1 72 22.2 79 79 VRB 3 6 30.06 1018 10 16 0.00 0.00
10:18 am 10:18 Mostly Cloudy 81 27.2 72 22.2 74 74 VRB 3 6 30.06 1018 10 16 0.00 0.00
10:53 am 10:53 undefined 83 28.3 71 21.7 67 67 undefined N/A 30.06 1018 N/A 0.00 0.00
11:53 am 11:53 Mostly Cloudy 84 28.9 73 22.8 70 70 N 3 6 30.05 1018 10 16 0.00 0.00
12:10 pm 12:10 Mostly Sunny 86 30 73 22.8 65 65 NNW 6 9 30.03 1017 10 16 0.00 0.00
12:30 pm 12:30 Mostly Cloudy 85 29.4 72 22.2 65 65 Calm 30.03 1017 10 16 0.00 0.00
12:53 pm 12:53 Partly Cloudy 86 30 71 21.7 61 61 VRB 7 11 30.04 1017 10 16 0.00 0.00
1:53 pm 13:53 Mostly Cloudy 87 30.6 72 22.2 61 61 Calm 30.02 1017 10 16 0.00 0.00
2:53 pm 14:53 Partly Cloudy 88 31.1 70 21.1 55 55 Calm 30.01 1016 10 16 0.00 0.00
3:53 pm 15:53 Partly Cloudy 88 31.1 70 21.1 55 55 ESE 6 9 29.99 1016 10 16 0.00 0.00
4:53 pm 16:53 Partly Cloudy 88 31.1 71 21.7 57 57 ENE 5 7 29.97 1015 10 16 0.00 0.00
5:53 pm 17:53 Mostly Cloudy 88 31.1 71 21.7 57 57 E 6 9 29.96 1014 10 16 0.00 0.00
6:53 pm 18:53 Sunny 88 31.1 72 22.2 59 59 ESE 5 7 29.97 1015 10 16 0.00 0.00
7:53 pm 19:53 Sunny 84 28.9 74 23.3 72 72 Calm 29.97 1015 10 16 0.00 0.00
8:53 pm 20:53 Clear 79 26.1 73 22.8 82 82 Calm 29.99 1016 10 16 0.00 0.00
9:53 pm 21:53 Clear 78 25.6 73 22.8 85 85 Calm 30.01 1016 10 16 0.00 0.00
10:53 pm 22:53 Clear 76 24.4 73 22.8 91 91 Calm 30.01 1016 10 16 0.00 0.00
11:53 pm 23:53 Clear 74 23.3 73 22.8 97 97 Calm 30.01 1016 10 16 0.00 0.00

Powered by AerisWeather